Content
SEND FEEDBACK

Daily
Averages
Monthly
Summary
United States of America

SALTVILLE, VIRGINIA


Home > North America > United States > Virginia
Elevation: 172 feet     Latitude: 36 53N     Longitude: 081 46W

WEATHER
 
SELECT A DAY
Number of Records: 135,079;   Date Range: 11/25/08 - 12/18/14
 
SHARE

PRINT THIS DATA

[ ← Previous Day ]
WEATHER ALMANAC - FEBRUARY 13, 2013
[ Next Day → ]
[ °C ]   °F
Weather ElementAverageHighLow
Temperature36.6 °F42.8 °F (11:15 am)30.2 °F (8:15 pm)
Dewpoint32.9 °F42.8 °F (11:15 am)21.2 °F (12:35 am)
Humidity88.5 %100 % (6:55 am)49 % (12:35 am)
Barometer29.71 in29.86 in (11:55 pm)29.57 in (2:35 pm)
Wind Speed6.3 mph16.1 mph (5:35 pm)
Weather ElementAverage
Visibility8.2 mi
Wind DirectionSSE (173.3 °)

Weather ElementTotal
Precipitation---
Heating Degree Days28.5 (Base 65)
Averaged from 69 records on February 13, 2013
WEATHER CONDITIONS BREAKOUT
WIND DIRECTION BREAKOUT
WEATHER BY HOUR - FEBRUARY 13, 2013
[ °C ]   °F
Local TimeTemperatureDewpointHumidityBarometerVisibilityWind DirectionWind SpeedGust SpeedPrecipitationEventsConditions
12:35 AM39.2 °F21.2 °F49 %29.85 in10.0 miCalmMostly Cloudy
12:55 AM39.2 °F21.2 °F49 %29.84 in10.0 miCalmOvercast
1:15 AM39.2 °F21.2 °F49 %29.82 in10.0 miCalmOvercast
1:35 AM39.2 °F21.2 °F49 %29.82 in10.0 miCalmOvercast
1:55 AM39.2 °F23.0 °F52 %29.82 in10.0 miCalmOvercast
2:15 AM39.2 °F23.0 °F52 %29.81 in10.0 miCalmMostly Cloudy
2:35 AM41.0 °F24.8 °F53 %29.81 in10.0 miCalmOvercast
2:55 AM39.2 °F26.6 °F61 %29.79 in10.0 miNNE (20°)3.5 mphMostly Cloudy
3:15 AM39.2 °F28.4 °F65 %29.78 in10.0 miCalmMostly Cloudy
3:35 AM39.2 °F28.4 °F65 %29.78 in10.0 miENE (70°)3.5 mphOvercast
3:55 AM39.2 °F28.4 °F65 %29.77 in10.0 miEast (100°)4.6 mphMostly Cloudy
4:15 AM39.2 °F28.4 °F65 %29.76 in10.0 miCalmMostly Cloudy
4:35 AM39.2 °F26.6 °F61 %29.74 in10.0 miENE (70°)3.5 mphMostly Cloudy
4:55 AM39.2 °F26.6 °F61 %29.74 in10.0 miEast (80°)6.9 mphMostly Cloudy
5:15 AM39.2 °F26.6 °F61 %29.73 in10.0 miENE (70°)4.6 mphOvercast
5:35 AM39.2 °F28.4 °F65 %29.72 in10.0 miEast (80°)5.8 mphOvercast
5:55 AM41.0 °F28.4 °F61 %29.71 in10.0 miEast (80°)4.6 mphOvercast
6:15 AM39.2 °F26.6 °F61 %29.70 in10.0 miNE (50°)4.6 mphOvercast
6:35 AM39.2 °F30.2 °F70 %29.69 in10.0 miENE (70°)5.8 mphMostly Cloudy
6:55 AM37.4 °F37.4 °F100 %29.69 in7.0 miCalmMostly Cloudy
7:15 AM37.4 °F37.4 °F100 %29.67 in6.0 miEast (90°)3.5 mphScattered Clouds
7:35 AM37.4 °F37.4 °F100 %29.65 in9.0 miEast (90°)4.6 mph
7:55 AM37.4 °F37.4 °F100 %29.65 in10.0 miEast (90°)4.6 mphScattered Clouds
8:15 AM37.4 °F37.4 °F100 %29.65 in7.0 miESE (110°)8.1 mphOvercast
8:35 AM37.4 °F37.4 °F100 %29.64 in8.0 miVariable5.8 mphPartly Cloudy
8:55 AM37.4 °F37.4 °F100 %29.64 in7.0 miVariable5.8 mphPartly Cloudy
9:15 AM37.4 °F37.4 °F100 %29.64 in10.0 miESE (110°)4.6 mphPartly Cloudy
9:35 AM39.2 °F39.2 °F100 %29.63 in9.0 miESE (110°)5.8 mphPartly Cloudy
9:55 AM39.2 °F39.2 °F100 %29.61 in9.0 miESE (120°)5.8 mphPartly Cloudy
10:15 AM39.2 °F39.2 °F100 %29.61 in10.0 miESE (120°)4.6 mphPartly Cloudy
10:35 AM39.2 °F39.2 °F100 %29.61 in9.0 miESE (120°)4.6 mphPartly Cloudy
10:55 AM41.0 °F41.0 °F100 %29.60 in9.0 miVariable4.6 mphScattered Clouds
11:15 AM42.8 °F42.8 °F100 %29.60 in7.0 miWest (260°)3.5 mphMostly Cloudy
11:35 AM42.8 °F42.8 °F100 %29.60 in9.0 miNW (310°)5.8 mphScattered Clouds
11:55 AM41.0 °F41.0 °F100 %29.61 in0.5 miNW (310°)3.5 mphMostly Cloudy
12:15 PM41.0 °F41.0 °F100 %29.61 in3.0 miWNW (290°)6.9 mphMostly Cloudy
12:35 PM41.0 °F41.0 °F100 %29.60 in0.8 miWNW (300°)11.5 mphOvercast
12:55 PM39.2 °F39.2 °F100 %29.58 in0.2 miNW (310°)8.1 mphOvercast
1:15 PM39.2 °F39.2 °F100 %29.59 in0.2 miWNW (290°)6.9 mphOvercast
1:35 PM39.2 °F39.2 °F100 %29.58 in0.2 miWest (280°)5.8 mphOvercast
1:55 PM39.2 °F39.2 °F100 %29.58 in0.5 miWest (270°)5.8 mphOvercast
2:15 PM39.2 °F39.2 °F100 %29.58 in10.0 miWest (260°)3.5 mphPartly Cloudy
2:35 PM39.2 °F39.2 °F100 %29.57 in10.0 miWSW (240°)9.2 mph
2:55 PM39.2 °F39.2 °F100 %29.58 in2.0 miWSW (250°)12.7 mphMostly Cloudy
3:15 PM37.4 °F37.4 °F100 %29.60 in3.0 miWNW (300°)12.7 mphMostly Cloudy
3:35 PM35.6 °F35.6 °F100 %29.62 in10.0 miWNW (300°)12.7 mphScattered Clouds
3:55 PM33.8 °F33.8 °F100 %29.64 in5.0 miWNW (300°)15.0 mph
4:15 PM33.8 °F33.8 °F100 %29.65 in8.0 miWNW (290°)13.8 mphClear
4:35 PM33.8 °F33.8 °F100 %29.68 in5.0 miWNW (300°)10.4 mph
4:55 PM33.8 °F33.8 °F100 %29.69 in10.0 miWNW (300°)6.9 mph
5:15 PM33.8 °F33.8 °F100 %29.70 in10.0 miWNW (290°)11.5 mph
5:35 PM32.0 °F32.0 °F100 %29.71 in8.0 miWNW (300°)16.1 mph
5:55 PM32.0 °F32.0 °F100 %29.72 in10.0 miWNW (300°)11.5 mph
6:15 PM32.0 °F32.0 °F100 %29.73 in10.0 miNW (320°)9.2 mph
6:35 PM32.0 °F32.0 °F100 %29.74 in10.0 miWNW (290°)6.9 mph
6:55 PM32.0 °F32.0 °F100 %29.76 in10.0 miWNW (300°)9.2 mph
7:15 PM32.0 °F32.0 °F100 %29.77 in10.0 miWNW (290°)6.9 mph
7:35 PM32.0 °F32.0 °F100 %29.78 in10.0 miWNW (290°)10.4 mph
7:55 PM32.0 °F30.2 °F93 %29.80 in10.0 miWest (280°)9.2 mph
8:15 PM30.2 °F30.2 °F100 %29.80 in9.0 miWNW (290°)5.8 mph
8:35 PM30.2 °F30.2 °F100 %29.80 in10.0 miWest (280°)5.8 mph
8:55 PM30.2 °F30.2 °F100 %29.80 in9.0 miWest (280°)8.1 mphClear
9:15 PM30.2 °F30.2 °F100 %29.81 in6.0 miWest (260°)8.1 mph
9:35 PM30.2 °F30.2 °F100 %29.82 in10.0 miWNW (290°)12.7 mph
9:55 PM30.2 °F30.2 °F100 %29.83 in10.0 miWest (280°)8.1 mphClear
10:15 PM30.2 °F30.2 °F100 %29.83 in10.0 miWest (270°)6.9 mphClear
10:35 PM30.2 °F30.2 °F100 %29.84 in10.0 miVariable5.8 mphClear
10:55 PM30.2 °F30.2 °F100 %29.84 in10.0 miWest (260°)8.1 mphClear
11:55 PM30.2 °F30.2 °F100 %29.86 in7.0 miWest (280°)6.9 mphClear
Hourly data recorded from KJFZ, located miles away from Saltville, Virginia







STORIES FROM OUR PARTNERS